Temp
5 5 6 5 5 4 4 4 4 3 3 3 3 3 3 3 3 3 3 2 2 1 0 0 -0 -0 -1 -1 -1 -1 -2 -3 -3 -4 -4 -5 -5 -6 -7 -7 -7 -8 -8 -9
5 5 5 5 4 3 3 3 3 3 3 2 2 4 3 3 3 3 2 2 1 1 0 -0 -0 -0 -1 -1 -2 -2 -3 -3 -4 -4 -5 -5 -6 -7 -7 -8 -8 -9 -10 -10
5 5 5 4 3 3 3 3 3 3 2 2 2 3 3 4 3 3 3 2 2 1 0 0 -0 -1 -1 -2 -2 -3 -3 -4 -4 -5 -5 -6 -7 -7 -7 -8 -8 -9 -10 -11
4 4 4 4 3 3 3 3 2 2 2 1 -0 1 4 4 4 4 3 2 2 1 0 0 -0 -1 -2 -2 -2 -3 -3 -4 -4 -5 -6 -6 -7 -7 -8 -8 -9 -10 -11 -11
3 3 3 3 3 2 2 2 1 1 0 -1 -1 -1 4 3 4 4 3 3 2 1 1 0 -1 -1 -2 -2 -3 -3 -4 -4 -5 -5 -6 -6 -7 -8 -8 -9 -10 -10 -11 -12
2 2 3 3 2 1 1 1 0 -1 -1 -5 0 -1 2 4 5 5 4 3 2 2 1 0 -1 -1 -2 -3 -3 -4 -4 -5 -5 -6 -6 -7 -7 -8 -8 -9 -10 -11 -11 -12
1 1 1 1 1 0 0 0 -1 -5 -7 -7 -1 -3 3 4 4 4 3 3 2 2 1 0 -1 -1 -2 -3 -3 -4 -4 -5 -5 -6 -7 -7 -8 -8 -8 -9 -10 -11 -12 -12
1 -0 1 1 1 1 0 0 1 -6 -7 -6 -3 -3 4 5 4 4 3 2 2 1 1 -0 -1 -2 -2 -3 -3 -4 -5 -5 -6 -6 -7 -7 -8 -8 -9 -10 -10 -11 -12 -12
1 0 1 -0 -0 -0 -1 -1 -0 -1 -3 -4 0 1 3 3 4 3 3 3 2 1 0 -0 -1 -2 -2 -3 -4 -4 -5 -5 -6 -6 -7 -8 -8 -8 -9 -10 -11 -12 -12 -13
2 1 -1 -2 -2 -2 -1 -0 -1 -1 -7 -9 -3 -1 3 4 3 3 3 3 2 1 0 -0 -1 -2 -2 -3 -4 -4 -5 -5 -6 -7 -7 -8 -8 -8 -9 -9 -10 -11 -12 -12
0 1 -2 -3 -2 -1 -1 -1 -1 -1 -1 -8 -9 -1 3 3 3 2 2 2 2 1 0 -1 -1 -2 -2 -3 -4 -5 -5 -6 -6 -7 -7 -8 -8 -8 -9 -9 -9 -10 -11 -12
0 0 -0 -0 -1 -1 -2 -1 -1 -0 -2 -2 -5 -1 2 3 2 1 1 2 1 0 -0 -1 -1 -2 -2 -3 -4 -5 -5 -6 -7 -7 -7 -8 -8 -8 -9 -9 -9 -10 -10 -11
1 -1 -1 -2 -2 -2 -2 0 -0 -2 -2 -2 -4 -0 2 2 2 1 1 1 1 0 -0 -1 -2 -2 -3 -3 -4 -5 -5 -6 -7 -7 -7 -8 -8 -8 -9 -9 -9 -10 -10 -11
1 0 1 1 3 2 -0 2 1 -1 -3 -1 -1 2 3 2 2 1 0 0 0 -0 -1 -1 -2 -2 -3 -3 -4 -5 -5 -6 -7 -7 -7 -8 -8 -9 -9 -9 -9 -10 -10 -11
0 1 1 1 2 1 1 1 2 1 2 -1 2 1 4 2 1 0 -1 -1 -1 -1 -1 -2 -2 -3 -3 -4 -4 -5 -5 -6 -7 -7 -7 -8 -8 -9 -9 -9 -9 -10 -10 -11
-0 -1 1 1 1 0 -0 -1 0 0 0 -0 1 1 3 2 2 1 0 -1 -2 -2 -2 -2 -2 -3 -3 -4 -4 -5 -6 -6 -7 -8 -7 -8 -9 -9 -9 -9 -10 -10 -11 -11
0 -0 -0 -1 0 -0 -4 -0 0 1 1 1 1 4 2 2 2 1 -1 -2 -2 -2 -2 -2 -3 -3 -3 -4 -4 -5 -6 -6 -7 -8 -8 -8 -9 -9 -9 -9 -10 -10 -11 -12
-0 -0 -1 -2 -2 -6 -0 0 0 1 0 1 2 3 2 2 1 1 0 -1 -2 -3 -3 -3 -2 -3 -4 -4 -4 -5 -6 -6 -7 -8 -8 -9 -9 -9 -10 -10 -10 -11 -11 -12
-2 -2 -2 -2 -4 -1 -1 -2 -0 0 1 2 2 3 3 2 2 2 1 0 -1 -2 -3 -3 -3 -4 -3 -4 -4 -5 -6 -6 -7 -8 -8 -9 -9 -10 -10 -10 -10 -11 -11 -12
-3 -3 -2 -4 -4 -6 -1 0 1 -1 -1 3 2 3 2 2 1 3 1 0 -1 -2 -3 -3 -3 -3 -3 -4 -5 -5 -6 -6 -7 -8 -8 -9 -9 -10 -10 -10 -10 -11 -11 -12
-5 -5 -4 -3 -3 -1 -1 -1 -1 -1 3 2 2 1 1 1 1 1 1 -0 -1 -2 -3 -3 -3 -3 -4 -4 -5 -5 -6 -7 -7 -8 -8 -9 -9 -10 -11 -11 -11 -11 -12 -12
-3 -5 -6 -7 -5 -4 -1 -1 -1 4 2 1 1 0 0 -0 -0 0 0 -0 -1 -1 -1 -2 -2 -3 -4 -4 -5 -6 -6 -7 -7 -8 -8 -9 -9 -10 -11 -11 -12 -12 -12 -13
-3 -2 -2 -3 -2 -0 -0 0 0 1 1 1 0 0 -0 -1 -1 -0 -0 -1 -1 -1 -2 -2 -3 -3 -4 -4 -5 -6 -6 -7 -7 -8 -9 -9 -10 -10 -11 -11 -12 -12 -13 -13
-3 -2 -3 -2 -1 -0 -0 0 -0 0 0 -0 -1 -1 -2 -2 -2 -1 -1 -1 -1 -2 -2 -2 -3 -3 -4 -5 -6 -6 -7 -7 -8 -8 -9 -10 -10 -10 -11 -12 -12 -13 -13 -13
-1 -2 -2 -2 -1 -1 0 0 -0 -1 -0 -2 -1 -2 -2 -3 -2 -1 -1 -1 -1 -2 -2 -3 -3 -4 -5 -5 -6 -6 -7 -7 -8 -9 -9 -10 -10 -11 -11 -12 -12 -12 -13 -13
-2 -1 -2 1 3 1 2 0 -1 -1 -2 -2 -2 -2 -3 -3 -2 -2 -2 -2 -2 -3 -3 -3 -4 -4 -5 -6 -6 -7 -7 -8 -8 -9 -9 -10 -10 -11 -12 -12 -12 -13 -13 -13
Height
3134 3135 3134 3136 3138 3138 3139 3138 3138 3138 3140 3141 3141 3139 3139 3138 3137 3136 3137 3136 3136 3136 3135 3134 3133 3130 3127 3122 3118 3114 3109 3105 3100 3094 3089 3085 3078 3070 3063 3056 3051 3045 3037 3030
3133 3132 3133 3134 3135 3137 3138 3137 3137 3137 3137 3138 3137 3134 3133 3133 3132 3131 3131 3130 3131 3131 3130 3130 3129 3126 3123 3119 3115 3111 3106 3102 3096 3090 3085 3080 3073 3067 3058 3052 3046 3041 3034 3027
3128 3129 3130 3131 3132 3134 3134 3134 3134 3136 3135 3134 3134 3128 3125 3126 3127 3125 3125 3124 3124 3126 3126 3126 3124 3122 3119 3116 3111 3108 3103 3098 3093 3088 3083 3078 3072 3065 3059 3050 3044 3037 3030 3023
3125 3125 3127 3128 3129 3129 3130 3131 3132 3133 3133 3133 3133 3127 3118 3121 3120 3119 3118 3118 3120 3120 3120 3120 3119 3118 3115 3112 3108 3104 3099 3095 3090 3085 3079 3074 3068 3061 3053 3047 3040 3034 3028 3021
3120 3120 3122 3124 3125 3126 3128 3128 3130 3132 3131 3129 3129 3130 3113 3114 3113 3114 3114 3114 3114 3115 3116 3116 3116 3114 3112 3109 3105 3101 3097 3093 3087 3082 3077 3071 3064 3057 3050 3045 3039 3033 3026 3019
3117 3118 3119 3120 3122 3123 3125 3127 3128 3130 3129 3127 3121 3124 3112 3111 3109 3109 3109 3108 3108 3109 3111 3112 3112 3111 3109 3105 3102 3098 3094 3089 3085 3080 3075 3069 3061 3054 3048 3043 3036 3029 3022 3017
3112 3113 3115 3117 3119 3120 3121 3123 3127 3131 3130 3121 3116 3117 3101 3105 3104 3106 3105 3105 3105 3105 3106 3108 3108 3107 3105 3101 3099 3095 3091 3086 3080 3076 3071 3065 3059 3050 3044 3039 3031 3024 3018 3013
3109 3110 3110 3111 3114 3116 3115 3118 3118 3126 3124 3116 3115 3107 3099 3099 3100 3100 3101 3101 3101 3101 3102 3103 3104 3103 3101 3098 3094 3091 3087 3082 3077 3073 3069 3062 3054 3048 3042 3035 3028 3019 3013 3007
3103 3104 3103 3105 3108 3114 3112 3113 3114 3114 3114 3114 3106 3100 3098 3094 3094 3096 3096 3096 3096 3098 3099 3099 3099 3099 3097 3095 3091 3087 3083 3078 3074 3070 3066 3060 3052 3045 3039 3031 3024 3016 3009 3004
3097 3100 3100 3102 3104 3107 3107 3108 3111 3112 3116 3117 3098 3096 3092 3091 3090 3090 3090 3091 3092 3093 3095 3094 3094 3094 3092 3090 3087 3084 3079 3075 3072 3067 3063 3057 3050 3043 3037 3028 3020 3013 3006 3000
3092 3095 3099 3100 3097 3096 3100 3101 3103 3104 3103 3102 3101 3090 3087 3087 3086 3085 3085 3085 3086 3087 3089 3090 3089 3087 3086 3084 3082 3079 3076 3073 3069 3065 3060 3054 3047 3041 3034 3026 3018 3010 3003 2997
3084 3088 3091 3095 3093 3094 3095 3096 3096 3097 3096 3093 3089 3078 3082 3081 3082 3083 3081 3080 3081 3082 3083 3084 3084 3082 3080 3079 3077 3075 3072 3069 3066 3062 3056 3050 3045 3038 3032 3024 3015 3008 3001 2994
3076 3082 3087 3091 3093 3089 3086 3086 3087 3089 3089 3085 3088 3071 3074 3073 3076 3078 3078 3076 3076 3077 3078 3078 3078 3077 3076 3074 3073 3071 3068 3065 3061 3058 3052 3047 3042 3036 3029 3021 3014 3006 2999 2992
3069 3073 3073 3075 3077 3077 3077 3077 3079 3083 3083 3074 3069 3063 3064 3067 3069 3070 3073 3073 3072 3071 3072 3072 3072 3072 3071 3069 3068 3067 3065 3061 3057 3054 3049 3043 3038 3033 3026 3019 3011 3004 2998 2992
3063 3063 3066 3068 3071 3073 3071 3072 3074 3071 3071 3066 3057 3060 3045 3059 3062 3061 3063 3063 3064 3064 3064 3065 3065 3065 3065 3064 3063 3062 3060 3058 3055 3051 3046 3041 3035 3030 3023 3017 3009 3002 2995 2990
3056 3057 3060 3061 3064 3064 3061 3065 3064 3064 3065 3058 3054 3048 3050 3052 3051 3051 3050 3050 3051 3054 3057 3058 3058 3058 3059 3058 3057 3057 3056 3054 3051 3048 3043 3039 3034 3028 3022 3015 3007 3000 2994 2989
3049 3052 3055 3051 3057 3055 3044 3047 3052 3051 3052 3051 3044 3035 3042 3042 3040 3042 3040 3039 3040 3044 3048 3050 3051 3051 3052 3051 3051 3052 3051 3049 3047 3044 3041 3036 3032 3026 3020 3013 3006 2998 2993 2988
3042 3046 3050 3049 3051 3044 3028 3032 3038 3038 3040 3038 3035 3032 3032 3031 3031 3031 3029 3029 3030 3034 3038 3041 3043 3045 3046 3046 3046 3046 3046 3045 3043 3041 3037 3034 3030 3023 3017 3012 3004 2998 2992 2987
3034 3040 3039 3043 3036 3028 3018 3019 3027 3028 3024 3029 3023 3024 3024 3022 3020 3020 3019 3020 3024 3026 3031 3034 3036 3038 3039 3040 3041 3041 3041 3040 3039 3037 3034 3031 3027 3022 3015 3008 3003 2997 2991 2986
3024 3028 3031 3030 3029 3017 3003 3015 3017 3020 3003 3018 3017 3014 3014 3013 3010 3013 3013 3011 3015 3018 3021 3025 3029 3031 3033 3034 3035 3036 3036 3036 3035 3034 3031 3028 3024 3019 3014 3009 3002 2996 2990 2985
3008 3013 3013 3018 3018 2998 2999 3006 3011 3016 3000 3004 3007 3007 3005 3004 3005 3006 3006 3004 3007 3011 3016 3019 3022 3025 3027 3027 3030 3030 3030 3030 3030 3028 3027 3024 3021 3017 3013 3007 3002 2996 2990 2984
2987 2996 2999 3009 3013 2991 2985 2994 2995 2993 2996 2996 2997 2997 2997 2997 2997 2997 2997 2998 3001 3005 3007 3011 3015 3018 3020 3021 3023 3024 3024 3025 3025 3025 3023 3022 3018 3016 3011 3006 3001 2995 2990 2984
2973 2967 2974 2982 2970 2971 2973 2977 2985 2986 2988 2989 2990 2991 2991 2988 2989 2989 2990 2993 2996 2999 3003 3006 3009 3012 3015 3016 3017 3018 3020 3020 3020 3020 3019 3018 3015 3013 3009 3005 3001 2996 2990 2984
2953 2958 2962 2970 2958 2964 2969 2971 2973 2977 2979 2981 2983 2983 2982 2980 2981 2981 2983 2986 2990 2993 2997 3001 3003 3006 3008 3011 3012 3012 3014 3015 3015 3015 3014 3013 3012 3009 3006 3003 2999 2995 2990 2984
2938 2945 2944 2946 2948 2953 2953 2957 2962 2967 2969 2972 2973 2973 2973 2972 2973 2973 2976 2980 2984 2987 2991 2995 2998 3001 3003 3005 3006 3007 3009 3010 3010 3010 3010 3009 3007 3005 3003 3000 2997 2993 2989 2985
2918 2921 2928 2924 2932 2936 2943 2950 2954 2956 2958 2960 2961 2963 2964 2964 2964 2967 2971 2975 2979 2982 2985 2989 2992 2995 2997 3000 3001 3003 3004 3004 3005 3006 3006 3004 3002 3001 2998 2996 2994 2990 2986 2981
Wind_Speed
14 14 15 11 14 12 8 15 15 15 16 15 18 22 19 19 20 21 20 20 18 15 15 14 15 19 21 25 28 31 32 33 34 34 36 37 37 36 35 37 37 36 37 36
14 16 15 13 17 15 10 15 17 16 15 15 16 22 23 22 21 24 24 24 22 17 17 15 17 20 22 25 29 31 32 34 34 35 36 37 36 35 38 37 37 36 36 34
16 11 16 16 15 17 19 20 20 17 12 16 17 27 29 24 22 24 24 26 24 19 18 16 18 21 23 26 29 31 33 33 33 34 34 34 33 34 35 37 37 38 36 33
15 18 15 16 19 20 19 20 19 16 10 7 12 9 25 21 22 24 25 26 22 19 19 18 18 21 23 26 29 31 32 32 32 33 34 35 35 36 38 39 37 36 35 32
15 14 19 19 19 18 16 17 16 13 13 11 14 9 20 21 24 20 20 20 21 20 19 18 19 21 23 26 29 30 31 31 30 32 33 35 35 35 38 39 37 35 33 32
20 16 15 19 18 18 15 13 12 10 9 5 16 16 15 20 10 9 14 17 21 19 17 19 19 21 23 26 27 29 29 29 29 31 32 34 35 36 39 38 38 37 34 31
21 20 21 18 18 18 19 14 3 2 2 6 7 12 26 18 18 15 15 15 18 18 18 17 18 20 22 25 27 28 28 27 28 30 31 33 34 38 40 41 42 40 36 32
23 11 25 23 24 18 24 22 8 7 3 3 8 11 9 16 16 18 17 18 19 19 17 16 18 20 22 24 25 26 26 26 27 28 30 33 35 39 42 42 43 41 37 35
15 14 16 23 25 22 23 24 21 4 4 1 9 15 24 29 20 16 17 20 20 19 16 17 18 20 22 24 25 25 25 25 25 26 29 31 35 38 42 44 44 40 36 33
15 8 17 20 22 25 19 17 11 12 2 4 6 9 18 17 20 16 17 18 18 18 18 18 18 19 21 22 24 24 23 24 24 25 28 31 35 38 42 45 44 40 36 32
28 18 10 21 25 30 29 26 16 9 7 5 2 7 14 18 18 17 17 16 19 18 17 18 18 19 21 22 22 22 22 22 23 25 27 31 34 37 41 44 44 41 38 33
33 18 13 18 18 25 28 29 29 13 8 11 5 20 29 26 19 21 19 20 20 20 18 18 20 20 20 21 21 21 21 21 21 24 27 31 34 37 40 42 42 41 38 33
31 17 8 5 16 23 30 35 37 34 28 20 5 16 22 19 18 18 18 21 23 24 20 19 20 21 20 20 20 19 20 20 21 23 27 30 34 36 38 40 40 40 37 32
25 27 22 22 12 11 27 33 35 36 19 30 40 49 46 43 42 39 26 22 24 25 25 25 22 22 21 20 19 18 19 19 21 22 26 29 33 35 36 38 39 39 36 32
31 27 32 35 31 24 22 20 23 35 35 39 49 45 55 46 42 41 37 35 32 31 29 28 21 22 21 19 18 17 17 18 20 21 25 28 31 33 35 37 37 38 37 32
37 24 29 30 33 37 36 28 30 33 34 45 50 54 48 40 37 36 39 39 38 39 34 27 23 23 20 19 16 16 16 17 19 20 24 27 29 31 34 36 35 36 36 32
39 39 30 26 32 35 33 44 44 46 46 49 55 47 45 35 33 29 33 33 31 29 28 25 24 21 20 19 16 15 15 16 17 20 23 25 27 29 32 34 35 35 35 32
34 33 35 17 19 10 33 32 30 36 35 36 40 44 40 37 35 30 32 32 26 25 25 24 24 21 21 17 15 15 14 15 16 19 21 23 25 27 29 32 33 33 34 32
40 33 22 21 23 35 31 20 23 30 43 36 41 32 24 27 31 31 32 32 26 24 23 22 23 23 21 17 16 15 14 14 15 18 20 21 23 25 27 29 31 31 32 32
38 37 38 22 9 12 28 26 16 23 50 35 31 24 17 23 30 18 23 22 26 27 28 26 24 23 19 17 17 15 14 14 14 17 19 19 21 23 25 27 29 30 31 32
41 41 46 40 26 39 43 25 21 19 47 30 22 19 23 19 16 23 27 20 21 24 23 23 24 21 19 19 18 16 14 14 14 16 18 19 19 21 23 25 27 29 30 31
47 37 37 32 24 36 39 31 42 44 28 21 21 21 19 16 21 22 24 21 19 22 25 24 22 21 19 19 19 17 16 15 15 16 17 18 18 19 21 23 25 27 28 29
49 60 50 41 53 52 38 39 30 26 31 32 26 24 27 26 25 20 21 22 20 22 23 22 20 20 20 20 19 18 17 16 16 16 17 17 17 18 19 22 24 26 26 27
59 52 56 49 68 67 61 59 56 51 46 43 38 34 36 28 21 22 23 24 25 22 22 21 19 19 19 20 19 19 18 18 18 16 17 17 17 17 18 20 22 24 26 27
62 57 64 66 68 63 66 61 57 54 49 47 45 46 34 32 24 23 26 24 23 21 20 20 19 19 21 21 19 19 19 19 19 17 18 18 17 16 17 19 21 22 24 25
57 60 58 63 55 61 55 57 52 49 47 40 38 34 33 31 24 24 23 23 21 21 20 20 19 20 22 20 20 20 20 19 19 18 17 18 18 16 16 18 20 21 23 25
Wind_Direction
224 220 227 239 230 234 232 227 237 237 243 248 255 263 268 270 274 278 277 274 276 275 270 284 308 315 324 328 333 335 335 335 339 341 342 342 342 343 345 345 345 341 339 340
222 228 230 228 226 223 230 227 236 247 250 250 255 267 269 267 277 277 277 273 275 273 266 279 298 310 319 326 329 332 333 334 338 341 341 342 344 346 345 347 344 343 341 341
225 239 232 232 230 230 228 239 243 244 244 247 256 270 267 274 269 270 275 272 270 269 263 272 291 304 316 323 324 329 332 332 337 339 340 342 346 345 346 345 344 343 343 340
233 234 231 235 235 234 231 236 236 241 243 238 232 283 278 282 277 273 271 269 272 263 262 268 283 298 309 317 321 327 329 330 335 338 338 341 346 349 349 346 345 344 342 338
228 227 229 231 231 227 226 228 232 240 229 254 239 244 276 285 286 292 276 273 271 260 255 266 278 292 303 311 317 324 327 329 334 336 337 342 346 351 350 346 344 343 342 339
234 233 229 227 226 224 229 216 213 220 230 265 255 226 266 278 286 262 265 263 261 253 248 261 272 288 299 306 314 323 325 327 333 335 338 342 345 350 348 345 343 342 343 342
226 229 231 227 221 217 213 194 169 283 232 222 241 215 261 274 277 273 272 260 249 241 245 258 270 284 294 303 313 322 324 327 333 335 339 341 345 349 346 344 343 342 342 342
221 221 230 229 221 226 211 202 200 204 197 254 219 233 269 281 283 278 273 263 242 240 248 260 270 281 292 302 312 321 322 327 332 335 338 341 346 349 344 343 343 341 340 339
218 219 222 223 218 212 213 213 225 248 263 297 239 260 272 277 284 284 279 272 261 245 253 263 273 282 293 302 312 321 322 327 332 335 337 340 347 347 344 343 344 343 340 336
222 212 215 211 213 214 214 216 206 208 168 264 265 240 246 284 290 288 281 284 255 244 255 265 275 285 293 301 312 319 321 326 331 336 336 342 347 344 343 345 345 345 342 337
223 217 217 204 214 216 212 216 213 208 210 188 241 239 269 278 276 280 286 269 248 245 257 263 274 284 294 300 311 317 320 325 330 335 337 343 345 343 344 346 346 346 344 341
213 213 221 226 226 224 225 232 230 222 214 221 264 265 276 281 279 272 273 263 246 243 253 265 272 281 292 299 310 315 318 324 329 334 339 344 343 343 345 346 347 347 346 344
218 204 189 221 242 232 226 230 232 234 243 245 223 261 274 277 284 286 282 262 250 247 249 277 277 279 289 297 307 311 316 322 329 332 340 343 343 342 345 347 347 349 348 348
216 214 216 214 244 234 225 239 236 236 235 246 246 272 281 279 283 284 278 268 260 253 252 269 282 279 284 293 302 308 312 318 327 330 340 342 341 342 345 347 348 351 349 349
215 219 227 235 245 253 250 241 240 237 253 245 274 274 287 289 287 284 280 271 261 256 257 267 274 274 279 287 297 301 307 315 323 329 338 340 341 342 345 348 350 352 351 350
225 225 231 237 244 252 254 242 243 250 256 263 271 278 287 292 287 283 280 274 268 260 261 258 267 269 272 281 292 295 302 313 319 328 336 338 340 342 345 349 351 354 352 351
228 226 229 240 247 255 258 248 251 257 260 268 266 286 294 291 288 287 281 273 266 261 258 253 257 257 263 274 283 289 296 308 315 326 332 336 338 343 346 349 352 356 353 353
242 233 232 249 237 256 263 260 256 261 263 269 275 288 294 293 286 278 273 271 257 239 238 234 247 254 257 268 274 280 289 301 310 322 328 332 337 344 349 350 354 355 354 352
238 229 217 227 219 253 255 250 248 256 273 275 278 289 290 279 277 274 272 269 261 239 224 232 237 240 251 263 264 270 280 294 307 318 324 329 336 344 349 352 355 356 356 354
231 227 223 217 222 238 263 257 259 254 263 286 289 291 266 267 269 306 299 266 253 232 219 227 234 239 249 257 257 262 272 285 302 313 320 324 333 343 348 353 356 358 357 357
214 218 218 223 236 256 256 255 241 237 279 297 289 273 279 271 286 298 275 264 238 220 222 227 229 236 243 250 253 258 264 274 293 307 314 317 328 340 348 354 359 360 358 359
215 204 213 214 227 254 252 234 236 275 288 289 285 275 269 268 309 292 262 241 227 224 220 225 229 237 244 244 249 255 258 266 282 299 307 311 320 335 345 353 359 2 360 359
219 225 218 218 230 240 252 261 262 257 277 279 278 284 281 282 300 269 245 226 230 226 219 218 224 235 241 241 246 254 257 263 275 290 300 305 313 327 340 351 358 2 3 1
227 231 230 234 248 251 255 261 263 269 274 279 276 272 281 276 277 253 241 235 233 225 220 224 234 240 239 240 246 253 257 261 272 284 293 299 307 318 332 343 352 359 3 2
233 234 233 242 253 252 256 260 261 262 270 275 278 280 273 263 265 250 239 228 221 217 223 228 233 237 238 239 246 254 258 260 269 279 290 297 301 309 322 332 342 350 358 1
232 236 233 250 267 261 269 267 262 266 273 271 270 266 261 260 244 233 220 218 221 226 227 231 235 239 241 241 247 256 258 258 267 277 287 294 296 301 311 322 330 339 348 356